Paso Robles, CA

4:21 AM PST on February 23, 2017 (GMT -0800)
Paso Robles Municipal

Weather History for KPRB - May, 2014

Change the Weather History Date:

Tuesday, May 6, 2014

  Actual Average Record
Temperature  
Mean Temperature 58 °F 61 °F  
Max Temperature 73 °F 78 °F 104 °F (1987)
Min Temperature 42 °F 45 °F 33 °F (1975)
Degree Days  
Heating Degree Days 7 5  
Month to date heating degree days 9 31  
Since 1 July heating degree days 2084 2743  
Cooling Degree Days 0 1  
Month to date cooling degree days 21 6  
Year to date cooling degree days 39 15  
Growing Degree Days 7 (Base 50)    
Moisture  
Dew Point 38 °F    
Average Humidity 54    
Maximum Humidity 82    
Minimum Humidity 25    
Precipitation  
Precipitation 0.00 in 0.01 in 0.26 in (1955)
Month to date precipitation 0.00 0.08  
Year to date precipitation 4.46 8.59  
Since 1 July precipitation 4.92  
Sea Level Pressure  
Sea Level Pressure 29.89 in    
Wind  
Wind Speed 12 mph (NW)    
Max Wind Speed 28 mph    
Max Gust Speed 33 mph    
Visibility 10 miles    
Events      
T = Trace of Precipitation, MM = Missing Value Source: NWS Daily Summary

Daily Weather History Graph

Daily Weather History Graph

Search for Another Location

Airport or City:

Trip Planner

Search our weather history database for the weather conditions in past years. The results will help you decide how hot, cold, wet, or windy it might be!

Date:

Astronomy

May. 06, 2014 Rise Set
Actual Time 6:05 AM PDT 7:53 PM PDT
Civil Twilight 5:37 AM PDT 8:21 PM PDT
Nautical Twilight 5:04 AM PDT 8:54 PM PDT
Astronomical Twilight 4:28 AM PDT 9:30 PM PDT
Moon 12:23 PM PDT (5/6) 1:17 AM PDT (5/6)
Length of Visible Light 14h 43m
Length of Day
13h 48m
Waxing Crescent, 47% of the Moon is Illuminated
May 6
Waxing Crescent
May 6
First Quarter
May 14
Full
May 21
Last Quarter
May 28
New

Hourly Weather History & Observations

Time (PDT) Temp. Windchill Dew Point Humidity Pressure Visibility Wind Dir Wind Speed Gust Speed Precip Events Conditions
12:53 AM 51.1 °F - 39.9 °F 66% 29.94 in 10.0 mi NW 8.1 mph - N/A   Clear
4:53 AM 46.0 °F 43.9 °F 37.9 °F 73% 29.93 in 10.0 mi WSW 4.6 mph - N/A   Clear
5:53 AM 43.0 °F 40.3 °F 37.0 °F 80% 29.93 in 10.0 mi WSW 4.6 mph - N/A   Clear
7:53 AM 50.0 °F - 39.0 °F 66% 29.94 in 10.0 mi Calm Calm - N/A   Clear
8:53 AM 55.9 °F - 39.0 °F 53% 29.93 in 10.0 mi NW 13.8 mph - N/A   Clear
9:53 AM 59.0 °F - 37.0 °F 44% 29.92 in 10.0 mi NW 15.0 mph - N/A   Clear
10:53 AM 62.1 °F - 35.1 °F 37% 29.91 in 10.0 mi NNW 13.8 mph - N/A   Clear
11:53 AM 66.0 °F - 34.0 °F 30% 29.90 in 10.0 mi NNW 13.8 mph - N/A   Clear
12:53 PM 68.0 °F - 35.1 °F 30% 29.87 in 10.0 mi NW 10.4 mph 23.0 mph N/A   Scattered Clouds
1:53 PM 70.0 °F - 34.0 °F 27% 29.86 in 10.0 mi NW 16.1 mph 23.0 mph N/A   Overcast
2:53 PM 69.1 °F - 37.0 °F 31% 29.85 in 10.0 mi NW 10.4 mph 18.4 mph N/A   Overcast
3:53 PM 69.1 °F - 39.0 °F 33% 29.83 in 10.0 mi Variable 5.8 mph 27.6 mph N/A   Mostly Cloudy
4:53 PM 71.1 °F - 34.0 °F 26% 29.83 in 10.0 mi NW 21.9 mph 26.5 mph N/A   Clear
5:53 PM 69.1 °F - 36.0 °F 30% 29.84 in 8.0 mi NNW 20.7 mph 31.1 mph N/A   Clear
6:53 PM 64.9 °F - 37.9 °F 37% 29.85 in 10.0 mi NNW 24.2 mph 31.1 mph N/A   Clear
7:53 PM 61.0 °F - 39.9 °F 46% 29.87 in 10.0 mi NNW 18.4 mph 27.6 mph N/A   Clear
8:53 PM 57.9 °F - 41.0 °F 53% 29.88 in 10.0 mi NW 16.1 mph - N/A   Clear
9:53 PM 55.9 °F - 41.0 °F 57% 29.90 in 10.0 mi WNW 10.4 mph - N/A   Clear
10:53 PM 54.0 °F - 42.1 °F 64% 29.92 in 10.0 mi NW 16.1 mph 21.9 mph N/A   Clear
11:53 PM 53.1 °F - 43.0 °F 69% 29.91 in 10.0 mi WNW 15.0 mph - N/A   Clear